Regional Weather Roundup
Issued by NWS Wakefield, VA

Current Version | Previous Version | Text Only | Print | Product List | Glossary Off
Versions: 1 2 3 4 5 6 7 8 9 10 11 12 13 14 15 16 17 18 19 20 21 22 23 24 25 26 27 28 29 30 31 32 33 34 35 36 37 38 39 40 41 42 43 44 45 46 47 48 49 50

000
ASUS41 KAKQ 192014
RWRAKQ

REGIONAL WEATHER ROUNDUP
NATIONAL WEATHER SERVICE WAKEFIELD VA
400 PM EDT SUN APR 19 2015

Note: "fair" indicates few or no clouds below 12,000 feet with no
significant weather and/or obstructions to visibility. * = Denotes
station may not report precipitation (e.g., rain,snow,etc.),
thunder or fog.

VAZ042-051-052>054-056-192100-
NORTHERN VIRGINIA

CITY           SKY/WX    TMP DP  RH WIND       PRES   REMARKS
WASH NATIONAL  CLOUDY    66  49  54 E17       30.08F
DULLES         CLOUDY    65  48  54 E14G22    30.05F
FORT BELVOIR   CLOUDY    66  50  56 VRB5      30.06F
QUANTICO       CLOUDY    66  51  58 S16       30.07F
FREDERICKSBRG* CLOUDY    67  53  60 E14G22    30.04F
STAFFORD*      CLOUDY    65  49  55 E17G26    30.09F
WARRENTON      CLOUDY    68  53  58 E15G23    30.04F
CULPEPER*      CLOUDY    68  52  56 SE6       30.04F
MANASSAS*      CLOUDY    66  52  59 SE15G21   30.04F
LEESBURG*      CLOUDY    66  50  55 SE16G24   30.06F
WINCHESTER     CLOUDY    66  39  37 E10G16    30.03F
FRONT ROYAL*   CLOUDY    66  45  45 SE6       30.02S
LURAY*         LGT RAIN  68  50  52 E10       30.01F
$$

VAZ048-049-060>072-079>083-192100-
CENTRAL AND SOUTH CENTRAL VIRGINIA

CITY           SKY/WX    TMP DP  RH WIND       PRES   REMARKS
RICHMOND       LGT RAIN  65  56  72 E12       30.02F
CHESTERFIELD*  NOT AVBL
PETERSBURG*    LGT RAIN  67  57  69 NE14      30.00F
HANOVER        LGT RAIN  65  54  67 E8        30.04F
TAPPAHANNOCK*  CLOUDY    64  50  59 E18G24    30.07S
QUINTON*       CLOUDY    64  57  77 NE9G16    30.03F
CHARLOTTSVILLE LGT RAIN  67  47  48 SE12      30.00F
GORDONSVILLE*  CLOUDY    66  51  58 SE7G24    30.01F
ORANGE*        CLOUDY    68  54  60 NE10G16   30.03F
LOUISA*        DRIZZLE   66  54  63 E7        30.01F
BUMPASS*       CLOUDY    66  53  63 E7        30.02F
FARMVILLE*     LGT RAIN  67  55  65 E12       29.97F
CREWE*         CLOUDY    65  53  65 E6        29.98F
FORT PICKETT*  CLOUDY    66  53  63 E14       29.98F
CHASE CITY*    CLOUDY    64  62  95 E5        29.96F
CLARKSVILLE*   CLOUDY    63  59  88 E9        29.95F
SOUTH HILL*    CLOUDY    62  58  86 CALM      30.02F
LAWRENCEVILLE* CLOUDY    67  55  64 CALM      29.96F
EMPORIA*       CLOUDY    68  52  56 E10       29.98F
$$

VAZ088>098-192100-
SOUTHEAST VIRGINIA

CITY           SKY/WX    TMP DP  RH WIND       PRES   REMARKS
NORFOLK        CLOUDY    63  56  78 E9        30.01F
VIRGINIA BEACH LGT RAIN  64  58  80 E14G23    30.01F
NORFOLK NAVAL  LGT RAIN  64  58  80 E12       30.02F
WEST POINT*    CLOUDY    68  54  61 E17G23    30.05F
SALUDA*        CLOUDY    61  54  76 E9G16     30.05F
NEWPORT NEWS   RAIN      64  58  80 NE7       30.02F
LANGLEY AFB    DRIZZLE   63  59  88 E21G28    30.00F FOG
FORT EUSTIS    LGT RAIN  63  61  94 VRB7G17   30.00F FOG
WILLIAMSBURG*  CLOUDY    66  61  82 E5        30.04S
HR EXEC AP*    CLOUDY    70  57  64 E7        30.01F
FRANKLIN*      RAIN     N/A N/A N/A NE8       29.99F
WAKEFIELD      LGT RAIN  65  59  81 E8        30.00F
$$

VAZ020-022-025-037-045-192100-
WEST CENTRAL AND SOUTHWEST VIRGINIA

CITY           SKY/WX    TMP DP  RH WIND       PRES   REMARKS
STAUNTON*      RAIN      62  49  61 CALM      30.03S
WAYNESBORO*    CLOUDY    61  47  60 SE12G17   30.01S
HOT SPRINGS VA RAIN      49  49 100 E14G21    29.96F VSB<1/4
LYNCHBURG      LGT RAIN  63  58  83 E9        29.96F
DANVILLE       CLOUDY    65  59  81 E10G18    29.91F
SOUTH BOSTON*  CLOUDY    62  59  90 E8        29.94F
MARTINSVILLE   RAIN      63  63 100 E8        29.91F
ROANOKE        LGT RAIN  61  56  83 E10       29.94F
BLACKSBURG     LGT RAIN  56  55  94 E16G24    29.94F
DUBLIN*        LGT RAIN  59  59 100 E10       29.90F
MARION*        DRIZZLE   61  59  94 E9        29.87F
HILLSVILLE*    RAIN      60  59  97 SE16      29.87F
RICHLANDS*     RAIN      60  56  89 SE10G22   29.81F
WISE*          LGT RAIN  61  61 100 SE5       29.78F
ABINGDON*      LGT RAIN  64  64  99 E7        29.80F
$$

MDZ021>025-VAZ099-100-192100-
SOUTHERN MARYLAND AND THE DELMARVA PENINSULA

CITY           SKY/WX    TMP DP  RH WIND       PRES   REMARKS
PATUXENT RIVER CLOUDY    61  50  67 E17G23    30.08F
BAY BRIDGE APT   N/A     61  37  41 E13G20    30.12F
LEONARDTOWN    CLOUDY    63  48  59 E10G16    30.09F
DOVER          PTSUNNY   54  40  57 E20G25    30.12F
GEORGETOWN     PTSUNNY   58  43  57 E17G28    30.14F
EASTON         SUNNY     63  43  48 N12G23    30.16S
CAMBRIDGE      CLOUDY    61  45  55 E13G18    30.11R
SALISBURY      CLOUDY    59  46  62 E13G24    30.11F
OCEAN CITY     CLOUDY    53  45  74 NE16G25   30.13F
WALLOPS ISLAND CLOUDY    57  50  77 NE21G26   30.10F
ACCOMACK*      CLOUDY    59  48  67 E17G29    30.07F
$$

NCZ012>017-030>032-192100-
NORTH CENTRAL AND EASTERN NORTH CAROLINA

CITY           SKY/WX    TMP DP  RH WIND       PRES   REMARKS
ROANOKE RAPIDS RAIN      68  57  68 E6        29.95F
RALEIGH        LGT RAIN  65  62  90 E14       29.92F FOG
ELIZABETH CITY CLOUDY    69  61  75 E13G22    29.99F
AHOSKIE*       RAIN      68  58  69 E6        29.97F
EDENTON*       RAIN      68  62  80 E8        29.97F
CURRITUCK*     CLOUDY    65  57  75 E6        30.01F
KILL DEVIL HLS CLOUDY    64  60  87 SE7       29.98F
MANTEO         CLOUDY    66  62  87 E7        30.00F
CAPE HATTERAS  CLOUDY    72  62  71 SE14      29.97F
TARBORO*       LGT RAIN  69  61  75 E7        29.95F
GOLDSBORO      LGT RAIN  68  67  94 E9        29.90F
WASHINGTON     CLOUDY    73  64  75 SE14      29.94F
GREENVILLE     LGT RAIN  72  64  78 E7        29.95F
NEW BERN       CLOUDY    70  66  87 SE9       29.95F
WILMINGTON     LGT RAIN  69  68  96 SE6       29.92F
$$

VAZ048-192100-
ELSEWHERE

CITY           SKY/WX    TMP DP  RH WIND       PRES   REMARKS
HARRISBURG PA  CLOUDY    64  41  42 SE15      30.07F
BALTIMORE      CLOUDY    60  40  47 E15G23    30.11F
ANNAPOLIS      PTSUNNY   60  43  53 E15       30.10F
ANDREWS AFB    PTSUNNY   63  48  57 E12       29.80F
PHILADELPHIA   CLOUDY    60  35  39 E13       30.15F
HENDERSON NC   LGT RAIN  63  58  85 E9        29.94F
GREENSBORO     LGT RAIN  66  65  96 SE12G20   29.86F FOG
ROCKY MOUNT    LGT RAIN  66  62  87 NE5       29.94F FOG
$$

VAZ100-192100-
MARINE

STATION/POSITION TIME  TEMP    WIND        PRES    WAVE   SWELL
                       AIR SEA DIR/SP/G            HT/PER HT/PER
                 (UTC) (F)     (DEG/KT/KT) (MB)    (FT/S) (FT/S)
BRANDYWINE LGT   1900   52 51  100/ 18/ 20 1021.6F
CAPE MAY NJ      1900   52 54   80/ 11/ 16 1021.3F
LEWES DE         1900   50 53   80/ 18/ 22 1021.0F
15NM E FENWICK I 1950   48 47              1019.6F   6/ 7
OCEAN-CITY-INLET 1900   53 52   70/ 10/ 17 1020.3F
WACHAPREAGUE VA  1900   59 67   50/ 18/ 25 1018.4F
THOMAS POINT MD  2000   58 55   90/ 17/ 19 1019.9F
GOOSES REEF MD   2000   59 55   90/ 14/ 16   N/A
COVE POINT MD    1900   62     130/ 15/ 18 1019.2F
SOLOMONS ISLAND  1900      58                N/A
BISHOPS HEAD MD  1900   63 64   90/ 18/ 20 1018.5F
PINEY POINT MD   1900          120/ 18/ 19   N/A
CAMBRIDGE MD     1900   61 60   90/ 18/ 20 1019.3F
LEWISETTA VA     1900   60 62              1018.6F
RAPPAHANNOCK LGT 1900           70/ 26/ 29 1018.1F
STINGRAY PT      2000   59 58   90/ 17/ 19 1018.6F   3/ 4
YORK RVR RNG VA  1900   60      80/ 20/ 23 1016.6F
YORKTOWN VA      1900   61 60   80/ 11/ 14 1017.4F
DOMINION TERM VA 1900   60      70/ 12/ 15 1017.3F
KIPTOPEKE VA     1900      60   90/ 14/ 22   N/A
CHES BAY BRIDGE  1900   56 57   50/ 20/ 23 1016.1F
CAPE HENRY VA    1900   55      60/ 14/ 17 1015.4F
CHESAPEAKE LGHT  1900   58      80/ 25/ 26 1017.1F
WILLOUBY STN VA  1900   58      90/ 11/ 13 1017.6F
S CRANEY ISL VA  1900           50/ 10/ 12 1016.7F
CAPE HENRY BUOY  1928      53                N/A     3/ 8   2/11
1ST LANDING BUOY 2000   56      80/ 16/ 17 1016.0F   2/ 3
OFFSHORE WE BUOY 1911      51                N/A     3/ 7   2/ 7
64NM E OF VA BCH 1950   65 59  100/ 12/ 14 1016.2F   4/ 6   3/ 6
DUCK PIER NC     1900   60 57   80/ 16/ 17 1015.5F
44056 DUCK FRF   1911      57                N/A     3/13   2/13
OREGON INLET NC  1900   64 60   60/  8/ 12 1016.1F
HATTERAS NC      1900   73 65  120/ 10/ 14 1015.2F
DIAMOND SHLS NC  1950   74 74  130/ 19/ 21 1014.7F   5/ 7   3/14
CAPE LOOKOUT NC  2000   69     110/ 10/ 10 1013.8F
$$


USA.gov is the U.S. government's official web portal to all federal, state and local government web resources and services.